Location: Goodmans Corner
(38.2049°N, 120.9872°W)
Time: 23:08:02
(UTC+00:00)

Envisat - Pass Details

Date: 25 October 2019
Orbit: 764 x 766 km, 98.1° (Epoch: 11 November)

Event Time Altitude Azimuth Distance (km) Brightness Sun altitude
Rises 02:39:20 0° 183° (S) 3,217 6.3 -17.4°
Reaches altitude 10° 02:41:43 10° 189° (S) 2,295 5.6 -17.8°
Maximum altitude 02:46:32 44° 261° (W) 1,049 4.2 -18.8°
Drops below altitude 10° 02:51:23 10° 334° (NNW) 2,309 5.8 -19.7°
Sets 02:53:49 0° 341° (NNW) 3,239 6.5 -20.2°
